Regional Weather Roundup
Issued by NWS

Home | Current Version | Previous Version | Graphics & Text | Print | Product List | Glossary On
Versions: 1 2 3 4 5 6 7 8 9 10 11 12 13 14 15 16 17 18 19 20 21 22 23 24 25 26 27 28 29 30 31 32 33 34 35 36 37 38 39 40 41 42 43 44 45 46 47 48 49 50
000
ASUS43 KIND 021409
RWRIN

WEATHER ROUNDUP FOR INDIANA
NATIONAL WEATHER SERVICE INDIANAPOLIS IN
900 AM EST MON MAR 02 2015

NOTE: "FAIR" INDICATES FEW OR NO CLOUDS BELOW 12,000 FEET WITH NO
SIGNIFICANT WEATHER AND/OR OBSTRUCTIONS TO VISIBILITY.

* - STATION DOES NOT REPORT WEATHER SUCH AS PRECIPITATION OR FOG.

+ - STATION NOT QUALITY CONTROLLED BY THE NATIONAL WEATHER SERVICE.
    USE DATA WITH CAUTION...ESPECIALLY DEWPOINT AND RELATIVE
    HUMIDITY OBSERVATIONS.

INZ001>003-010>013-019-020-021500-
NORTHWEST INDIANA

CITY           SKY/WX    TMP DP  RH WIND       PRES   REMARKS
GARY /AIRPORT/ MOSUNNY   16   7  67 W9        30.50R WCI   4
KNOX *+          N/A     10   0  61 CALM      30.48S
LA PORTE +     MOSUNNY   15  12  89 W6        30.48R WCI   6
MICHIGAN CITY+ MOSUNNY   16   9  73 SW3       30.49R
MONTICELLO +   CLOUDY     7   4  89 NW5       30.50R WCI  -2
RENSSELAER +   PTSUNNY    9   7  92 W5        30.50R FOG     WCI   0
VALPARAISO     MOSUNNY   15   8  73 W8        30.48R WCI   4

$$

LMZ046-743>745-021500-
SOUTHERN LAKE MICHIGAN

STATION/POSITION TIME  TEMP WIND        PRES
                       AIR  DIR/SP/G
                 (UTC) (F)  (DEG/KT/KT) (MB)
MICHIGAN CITY    1400   17  210/  8/ 10   N/A

$$

INZ004-005-014>016-021>024-021500-
NORTH CENTRAL INDIANA

CITY           SKY/WX    TMP DP  RH WIND       PRES   REMARKS
ELKHART        CLOUDY    18  12  79 W8        30.47R WCI   7
GOSHEN         MOSUNNY    8   7  95 SW5       30.47R FOG     WCI   0
LOGANSPORT +   PTSUNNY    3   0  85 SW3       30.51R FOG
PERU/GRISSOM   PTSUNNY    8   5  87 W5        30.49R WCI  -1
ROCHESTER +    MOSUNNY   18  12  79 SW3       30.50R
SOUTH BEND     PTSUNNY   15   9  76 SW6       30.48R WCI   6
WARSAW +       MOSUNNY   14  10  85 SW6       30.48R WCI   5

$$

INZ006>009-017-018-025>027-021500-
NORTHEAST INDIANA

CITY           SKY/WX    TMP DP  RH WIND       PRES   REMARKS
ANGOLA *+      SUNNY     16   5  62 SW5       30.44R WCI   9
FORT WAYNE     MOSUNNY   12   8  84 W6        30.48R WCI   3
HUNTINGTON +   MOSUNNY   14   6  71 W5        30.49R WCI   6

$$

INZ028-029-035-036-043>045-051>053-021500-
WEST CENTRAL INDIANA

CITY           SKY/WX    TMP DP  RH WIND       PRES   REMARKS
CRAWFORDSVL +  PTSUNNY    9   2  76 CALM      30.51R
GREENCASTLE +  PTSUNNY   19  10  68 CALM      30.52R
LAFAYETTE      PTSUNNY   11  11 100 CALM      30.52R
TERRE HAUTE    MOSUNNY   17  12  80 CALM      30.54R

$$

INZ030>032-037>040-046>048-054>057-064-065-021500-
CENTRAL INDIANA

CITY           SKY/WX    TMP DP  RH WIND       PRES   REMARKS
ANDERSON       SUNNY     16   9  73 CALM      30.51
CP ATTERBURY + PTSUNNY   21  12  68 NW3       30.54R
FRANKFORT +    PTSUNNY    4   1  89 CALM      30.51R FOG
GREENWOOD *+   PTSUNNY   18   9  68 CALM      30.52R
INDIANAPOLIS   PTSUNNY   17  10  74 SW3       30.51R
-EAGLE CREEK   PTSUNNY   18  11  74 CALM      30.51R
KOKOMO *+      PTSUNNY    7   3  85 CALM      30.50R
MARION +       PTSUNNY    4   0  85 W5        30.51R FOG     WCI  -6
MT COMFORT *+  PTSUNNY   16   3  57 CALM      30.51R
SHELBYVILLE    PTSUNNY   18  11  74 CALM      30.51R
ZIONSVILLE +   PTSUNNY   15   8  75 NW5       30.51R WCI   7

$$

INZ033-034-041-042-049-050-058-059-021500-
EAST CENTRAL INDIANA

CITY           SKY/WX    TMP DP  RH WIND       PRES   REMARKS
MUNCIE         PTSUNNY   15  10  80 W5        30.50R WCI   8

$$

INZ060-061-067>069-081>083-085>088-021500-
SOUTHWEST INDIANA

CITY           SKY/WX    TMP DP  RH WIND       PRES   REMARKS
EVANSVILLE     MOSUNNY   27  17  66 NE8       30.56R WCI  19
HUNTINGBURG *+ MOSUNNY   25  16  68 N6        30.55R WCI  18
WASHINGTON +   PTSUNNY   22  14  72 W3        30.55R

$$

INZ062-063-066-070>080-084-089>092-021500-
SOUTH CENTRAL AND SOUTHEAST INDIANA

CITY           SKY/WX    TMP DP  RH WIND       PRES   REMARKS
BLOOMINGTON    MOSUNNY   16  13  88 NW3       30.52R
NORTH VERNON + PTSUNNY   21  19  93 CALM      30.53R
SEYMOUR +      MOSUNNY   21  14  73 CALM      30.54R

$$



USA.gov is the U.S. government's official web portal to all federal, state and local government web resources and services.